Regional Weather Roundup
Issued by NWS

Home | Current Version | Previous Version | Text Only | Print | Product List | Glossary Off
Versions: 1 2 3 4 5 6 7 8 9 10 11 12 13 14 15 16 17 18 19 20 21 22 23 24 25 26 27 28 29 30 31 32 33 34 35 36 37 38 39 40 41 42 43 44 45 46 47 48 49 50

000
ASUS43 KIND 041959
RWRIN

WEATHER ROUNDUP FOR INDIANA
NATIONAL WEATHER SERVICE INDIANAPOLIS IN
400 PM EDT MON MAY 04 2015

NOTE: "FAIR" INDICATES FEW OR NO CLOUDS BELOW 12,000 FEET WITH NO
SIGNIFICANT WEATHER AND/OR OBSTRUCTIONS TO VISIBILITY.

* - STATION DOES NOT REPORT WEATHER SUCH AS PRECIPITATION OR FOG.

+ - STATION NOT QUALITY CONTROLLED BY THE NATIONAL WEATHER SERVICE.
    USE DATA WITH CAUTION...ESPECIALLY DEWPOINT AND RELATIVE
    HUMIDITY OBSERVATIONS.

INZ001>003-010>013-019-020-042100-
NORTHWEST INDIANA

CITY           SKY/WX    TMP DP  RH WIND       PRES   REMARKS
GARY /AIRPORT/ CLOUDY    64 N/A N/A NE18      30.14R

$$

LMZ046-743>745-042100-
SOUTHERN LAKE MICHIGAN

STATION/POSITION TIME  TEMP    WIND        PRES    WAVE
                       AIR SEA DIR/SP/G            HT
                 (UTC) (F)     (DEG/KT/KT) (MB)    (FT)
BURNS HARBOR     1900   57      60/  9/ 15 1021.0R
MICHIGAN CITY    1900   55     360/  9/ 12   N/A
5NW MICH CITY    1900   52 50   20/  8/ 10   N/A     1

$$

INZ004-005-014>016-021>024-042100-
NORTH CENTRAL INDIANA

CITY           SKY/WX    TMP DP  RH WIND       PRES   REMARKS
ELKHART        PTSUNNY   72  57  60 SW9       30.14S
GOSHEN         PTSUNNY   70  61  73 W9        30.13S
PERU/GRISSOM   DRIZZLE   68  61  77 SW9       30.15S
SOUTH BEND     CLOUDY    70  57  63 W8        30.15R

$$

INZ006>009-017-018-025>027-042100-
NORTHEAST INDIANA

CITY           SKY/WX    TMP DP  RH WIND       PRES   REMARKS
ANGOLA *+      PTSUNNY   73  61  64 W13       30.13R
FORT WAYNE     CLOUDY    65  61  87 SW8       30.17R

$$

INZ028-029-035-036-043>045-051>053-042100-
WEST CENTRAL INDIANA

CITY           SKY/WX    TMP DP  RH WIND       PRES   REMARKS
GREENCASTLE +  PTSUNNY   73  55  53 S8        30.15F
LAFAYETTE      CLOUDY    70  60  70 CALM      30.14F
TERRE HAUTE    PTSUNNY   78  60  53 SW8       30.14S

$$

INZ030>032-037>040-046>048-054>057-064-065-042100-
CENTRAL INDIANA

CITY           SKY/WX    TMP DP  RH WIND       PRES   REMARKS
ANDERSON       PTSUNNY   68  54  60 SW6       30.18R
GREENWOOD *+   CLOUDY    72  57  60 S7        30.17S
INDIANAPOLIS   CLOUDY    73  61  65 S12       30.15S
-EAGLE CREEK   CLOUDY    73  60  63 S10       30.15S
KOKOMO *+      PTSUNNY   70  63  78 W7        30.16S
MT COMFORT *+  CLOUDY    70  52  52 S8        30.17S
SHELBYVILLE    CLOUDY    73  58  59 S9        30.16S

$$

INZ033-034-041-042-049-050-058-059-042100-
EAST CENTRAL INDIANA

CITY           SKY/WX    TMP DP  RH WIND       PRES   REMARKS
MUNCIE         CLOUDY    70  58  65 W8        30.17R

$$

INZ060-061-067>069-081>083-085>088-042100-
SOUTHWEST INDIANA

CITY           SKY/WX    TMP DP  RH WIND       PRES   REMARKS
EVANSVILLE     PTSUNNY   84  55  36 W16G23    30.16S
HUNTINGBURG *+ PTSUNNY   81  57  44 SW10      30.16S

$$

INZ062-063-066-070>080-084-089>092-042100-
SOUTH CENTRAL AND SOUTHEAST INDIANA

CITY           SKY/WX    TMP DP  RH WIND       PRES   REMARKS
BLOOMINGTON    PTSUNNY   78  57  48 VRB5      30.16F
MADISON *+     CLOUDY    81  52  36 S9        30.18F
SEYMOUR +      CLOUDY    77  59  53 SW9       30.15F

$$



USA.gov is the U.S. government's official web portal to all federal, state and local government web resources and services.